Flag for U.S.A. Weather past 2 weeks in Wilmington, Delaware, U.S.A.

Now
59 °F

Clear.


Feels Like: 59 °F
Forecast: 54 / 73 °F
Wind: No wind

Location: New Castle County Airport

Current Time: Sep 17, 2014 at 11:51:09 PM

Latest Report: Sep 17, 2014 at 10:51 PM


Visibility: 10 mi

Pressure: 29.99 "Hg

Humidity: 84%

Dew point: 54 °F

Location of WilmingtonLocation

Historic Weather in Wilmington — Graph

°F

Wilmington temperature yesterday

Maximum temperature yesterday: 74 °F (at 12:51 PM)
Minimum temperature yesterday: 58 °F (at 11:51 PM)
Average temperature yesterday: 66 °F

Past Weeks' High & Low Weather Summary

 TemperatureHumidityPressure
High91 °F (Sep 6, 2:51 PM)97% (Sep 5, 5:51 AM)30.32 "Hg (Sep 5, 5:51 AM)
Low48 °F (Sep 15, 6:51 AM)41% (Sep 7, 4:51 PM)29.85 "Hg (Sep 11, 3:51 PM)
Average70 °F73%30.09 "Hg
* Reported Sep 2 9:02 PM — Sep 17 9:51 PM, Wilmington, Weather by CustomWeather, © 2014

Note: Actual official high and low records may vary slightly from our data, if they occured in-between our weather recording intervals... More about our weather records

Advertising

Wilmington weather history for previous 24 hours

 ConditionsComfort  
Time TempWeatherWind HumidityBarometerVisibility
9:51 PM
Sep 17
59 °FClear.No wind81%29.98 "Hg10 mi
8:51 PM64 °FClear.No wind65%29.98 "Hg10 mi
7:51 PM67 °FSunny.3 mph57%29.98 "Hg10 mi
6:51 PM70 °FSunny.5 mph46%29.98 "Hg10 mi
5:51 PM72 °FOvercast.6 mph44%29.98 "Hg10 mi
4:51 PM70 °FSunny.5 mph49%29.98 "Hg10 mi
3:51 PM72 °FScattered clouds.No wind43%29.98 "Hg10 mi
2:51 PM73 °FSunny.3 mph43%29.98 "Hg10 mi
1:51 PM71 °FPartly sunny.3 mph42%30.01 "Hg10 mi
12:51 PM71 °FScattered clouds.5 mph44%30.04 "Hg10 mi
11:51 AM71 °FSunny.No wind42%30.05 "Hg10 mi
10:51 AM69 °FSunny.5 mph47%30.06 "Hg10 mi
9:51 AM67 °FSunny.3 mph59%30.07 "Hg10 mi
8:51 AM63 °FScattered clouds.3 mph68%30.07 "Hg10 mi
7:51 AM58 °FScattered clouds.5 mph84%30.06 "Hg10 mi
6:51 AM55 °FPassing clouds.5 mph87%30.06 "Hg10 mi
5:51 AM56 °FOvercast.6 mph90%30.04 "Hg10 mi
4:51 AM54 °FOvercast.3 mph90%30.04 "Hg10 mi
3:51 AM54 °FPassing clouds.3 mph93%30.04 "Hg10 mi
2:51 AM53 °FClear.5 mph93%30.04 "Hg10 mi
1:51 AM54 °FClear.7 mph90%30.05 "Hg10 mi
12:51 AM57 °FClear.No wind83%30.04 "Hg10 mi
11:51 PM
Sep 16
58 °FPassing clouds.8 mph87%30.05 "Hg10 mi
Weather by CustomWeather, © 2014

See weather overviewHow to use our weather pages